QPF
0.01 0.00 0.00 0.00 0.00 0.00 0.00 0.00 0.00 0.00 0.00 0.00 0.00 0.00 0.00 0.00 0.00 0.00 0.00 0.00 0.00 0.00 0.00 0.00 0.00 0.00 0.00 0.00 0.00 0.00 0.00 0.00 0.00 0.00 0.00 0.00 0.00 0.00 0.00 0.00 0.00 0.00 0.00 0.00
0.00 0.00 0.00 0.00 0.00 0.00 0.00 0.00 0.00 0.00 0.00 0.00 0.00 0.00 0.00 0.00 0.00 0.00 0.00 0.00 0.00 0.00 0.00 0.00 0.00 0.00 0.00 0.00 0.00 0.00 0.00 0.00 0.00 0.00 0.00 0.00 0.00 0.00 0.00 0.00 0.00 0.00 0.00 0.00
0.00 0.00 0.00 0.00 0.00 0.00 0.00 0.00 0.00 0.00 0.00 0.00 0.00 0.00 0.00 0.00 0.00 0.00 0.00 0.00 0.00 0.00 0.00 0.00 0.00 0.00 0.00 0.00 0.00 0.00 0.00 0.00 0.00 0.00 0.00 0.00 0.00 0.00 0.00 0.00 0.00 0.00 0.00 0.00
0.00 0.00 0.00 0.00 0.00 0.00 0.00 0.00 0.00 0.00 0.00 0.00 0.00 0.00 0.00 0.00 0.00 0.00 0.00 0.00 0.00 0.00 0.00 0.00 0.00 0.00 0.00 0.00 0.00 0.00 0.00 0.00 0.00 0.00 0.00 0.00 0.00 0.00 0.00 0.00 0.00 0.00 0.00 0.00
0.00 0.00 0.00 0.00 0.00 0.00 0.00 0.00 0.00 0.00 0.00 0.00 0.00 0.00 0.00 0.00 0.00 0.00 0.00 0.00 0.00 0.00 0.00 0.00 0.00 0.00 0.00 0.00 0.00 0.00 0.00 0.00 0.00 0.00 0.00 0.00 0.00 0.00 0.00 0.00 0.00 0.00 0.00 0.00
0.01 0.00 0.00 0.00 0.00 0.00 0.00 0.00 0.00 0.00 0.00 0.00 0.00 0.00 0.00 0.00 0.00 0.00 0.00 0.00 0.00 0.00 0.00 0.00 0.00 0.00 0.00 0.00 0.00 0.00 0.00 0.00 0.00 0.00 0.00 0.00 0.00 0.00 0.00 0.00 0.00 0.00 0.00 0.00
0.01 0.01 0.00 0.00 0.00 0.00 0.00 0.00 0.00 0.00 0.00 0.00 0.00 0.00 0.00 0.00 0.00 0.00 0.00 0.00 0.00 0.00 0.00 0.00 0.00 0.00 0.00 0.00 0.00 0.00 0.00 0.00 0.00 0.00 0.00 0.00 0.00 0.00 0.00 0.00 0.00 0.00 0.00 0.00
0.01 0.01 0.00 0.00 0.00 0.00 0.00 0.00 0.00 0.00 0.00 0.00 0.00 0.00 0.00 0.00 0.00 0.00 0.00 0.00 0.00 0.00 0.00 0.00 0.00 0.00 0.00 0.00 0.00 0.00 0.00 0.00 0.00 0.00 0.00 0.00 0.00 0.00 0.00 0.00 0.00 0.00 0.00 0.00
0.01 0.00 0.00 0.00 0.00 0.00 0.00 0.00 0.00 0.00 0.00 0.00 0.00 0.00 0.00 0.00 0.00 0.00 0.00 0.00 0.00 0.00 0.00 0.00 0.00 0.00 0.00 0.00 0.00 0.00 0.00 0.00 0.00 0.00 0.00 0.00 0.00 0.00 0.00 0.00 0.00 0.00 0.00 0.00
0.01 0.01 0.00 0.00 0.00 0.00 0.00 0.00 0.00 0.00 0.00 0.00 0.00 0.00 0.00 0.00 0.00 0.00 0.00 0.00 0.00 0.00 0.00 0.01 0.01 0.01 0.01 0.01 0.00 0.00 0.00 0.00 0.00 0.00 0.00 0.00 0.00 0.00 0.00 0.00 0.00 0.00 0.00 0.00
0.01 0.00 0.00 0.00 0.00 0.00 0.00 0.00 0.00 0.00 0.00 0.00 0.01 0.01 0.01 0.01 0.01 0.00 0.00 0.00 0.01 0.01 0.01 0.01 0.02 0.02 0.02 0.02 0.01 0.01 0.01 0.01 0.00 0.00 0.00 0.00 0.00 0.00 0.00 0.00 0.00 0.00 0.00 0.00
0.01 0.01 0.00 0.00 0.00 0.00 0.00 0.00 0.00 0.00 0.00 0.01 0.01 0.01 0.01 0.01 0.01 0.01 0.01 0.01 0.01 0.01 0.02 0.03 0.03 0.03 0.04 0.03 0.03 0.03 0.02 0.02 0.01 0.01 0.00 0.00 0.00 0.00 0.00 0.00 0.00 0.00 0.00 0.00
0.01 0.00 0.00 0.00 0.00 0.00 0.00 0.00 0.00 0.00 0.00 0.00 0.00 0.00 0.01 0.01 0.01 0.01 0.01 0.02 0.02 0.02 0.02 0.03 0.03 0.03 0.04 0.04 0.03 0.03 0.03 0.03 0.02 0.01 0.01 0.00 0.00 0.00 0.00 0.00 0.00 0.00 0.00 0.00
0.00 0.00 0.00 0.00 0.00 0.00 0.00 0.00 0.00 0.00 0.00 0.00 0.00 0.00 0.00 0.00 0.01 0.01 0.01 0.01 0.01 0.01 0.02 0.02 0.03 0.03 0.03 0.03 0.03 0.03 0.03 0.03 0.03 0.02 0.02 0.01 0.01 0.01 0.00 0.00 0.00 0.00 0.00 0.00
0.00 0.00 0.00 0.00 0.00 0.00 0.00 0.01 0.01 0.01 0.01 0.01 0.01 0.01 0.01 0.01 0.01 0.01 0.00 0.00 0.00 0.00 0.01 0.01 0.01 0.02 0.02 0.02 0.02 0.02 0.02 0.02 0.02 0.02 0.02 0.02 0.02 0.01 0.01 0.01 0.01 0.01 0.01 0.01
0.02 0.01 0.01 0.01 0.01 0.01 0.01 0.01 0.01 0.01 0.01 0.01 0.02 0.02 0.02 0.02 0.01 0.01 0.01 0.00 0.00 0.00 0.00 0.00 0.01 0.01 0.01 0.01 0.01 0.01 0.01 0.02 0.02 0.01 0.01 0.02 0.02 0.02 0.02 0.01 0.01 0.01 0.01 0.01
0.04 0.03 0.03 0.03 0.03 0.02 0.02 0.02 0.01 0.01 0.01 0.02 0.02 0.02 0.02 0.02 0.01 0.01 0.01 0.01 0.00 0.00 0.00 0.00 0.00 0.01 0.01 0.01 0.01 0.01 0.01 0.01 0.02 0.02 0.01 0.01 0.02 0.02 0.02 0.02 0.01 0.01 0.01 0.01
0.04 0.04 0.04 0.05 0.05 0.05 0.04 0.03 0.03 0.02 0.03 0.03 0.03 0.02 0.02 0.02 0.01 0.01 0.01 0.01 0.01 0.01 0.01 0.00 0.00 0.00 0.00 0.00 0.01 0.01 0.01 0.01 0.01 0.01 0.01 0.02 0.02 0.02 0.02 0.02 0.02 0.01 0.01 0.02
0.02 0.03 0.03 0.03 0.04 0.04 0.04 0.04 0.05 0.05 0.05 0.04 0.04 0.04 0.03 0.03 0.02 0.02 0.01 0.01 0.01 0.01 0.00 0.00 0.00 0.00 0.00 0.00 0.00 0.01 0.01 0.01 0.01 0.01 0.01 0.02 0.03 0.02 0.02 0.02 0.02 0.02 0.02 0.02
0.01 0.02 0.02 0.03 0.03 0.04 0.04 0.05 0.05 0.06 0.06 0.05 0.05 0.04 0.04 0.04 0.04 0.03 0.02 0.01 0.01 0.00 0.00 0.00 0.00 0.00 0.00 0.00 0.00 0.00 0.01 0.01 0.01 0.01 0.01 0.02 0.02 0.02 0.02 0.02 0.03 0.03 0.03 0.03
0.01 0.01 0.01 0.02 0.02 0.03 0.03 0.04 0.04 0.05 0.05 0.05 0.05 0.04 0.04 0.04 0.04 0.04 0.03 0.02 0.01 0.01 0.00 0.00 0.00 0.00 0.00 0.00 0.00 0.00 0.00 0.01 0.01 0.01 0.02 0.02 0.03 0.03 0.03 0.03 0.03 0.03 0.03 0.03
0.01 0.01 0.01 0.01 0.02 0.02 0.02 0.03 0.03 0.03 0.03 0.03 0.03 0.03 0.04 0.04 0.03 0.02 0.02 0.02 0.01 0.01 0.01 0.00 0.00 0.00 0.00 0.00 0.00 0.00 0.00 0.00 0.01 0.01 0.02 0.02 0.02 0.02 0.02 0.03 0.03 0.03 0.03 0.03
0.01 0.02 0.02 0.02 0.02 0.02 0.02 0.02 0.02 0.03 0.03 0.03 0.03 0.03 0.03 0.02 0.02 0.02 0.02 0.01 0.01 0.01 0.01 0.00 0.00 0.00 0.00 0.00 0.00 0.00 0.00 0.01 0.01 0.01 0.02 0.02 0.02 0.02 0.02 0.03 0.03 0.03 0.03 0.02
0.01 0.01 0.02 0.02 0.02 0.02 0.02 0.02 0.02 0.02 0.02 0.02 0.02 0.02 0.02 0.02 0.02 0.01 0.01 0.01 0.01 0.01 0.01 0.01 0.01 0.00 0.00 0.00 0.00 0.01 0.01 0.01 0.01 0.01 0.02 0.02 0.02 0.02 0.02 0.02 0.02 0.02 0.02 0.01
0.01 0.01 0.02 0.02 0.03 0.03 0.03 0.03 0.02 0.02 0.02 0.01 0.01 0.01 0.01 0.01 0.01 0.01 0.01 0.01 0.01 0.01 0.01 0.00 0.00 0.00 0.00 0.00 0.01 0.01 0.01 0.01 0.01 0.01 0.01 0.01 0.01 0.02 0.02 0.02 0.01 0.01 0.01 0.01
0.01 0.01 0.02 0.02 0.02 0.02 0.03 0.03 0.02 0.02 0.02 0.01 0.01 0.01 0.01 0.01 0.01 0.00 0.00 0.00 0.00 0.00 0.00 0.00 0.00 0.00 0.00 0.01 0.01 0.01 0.01 0.01 0.01 0.01 0.01 0.01 0.01 0.01 0.01 0.01 0.01 0.01 0.00 0.00
0.01 0.01 0.01 0.02 0.02 0.02 0.02 0.02 0.02 0.02 0.01 0.01 0.01 0.01 0.00 0.00 0.00 0.00 0.00 0.00 0.00 0.00 0.00 0.00 0.00 0.00 0.00 0.00 0.00 0.00 0.00 0.01 0.01 0.01 0.01 0.01 0.01 0.01 0.01 0.01 0.00 0.00 0.00 0.00
MSLP
1015.32 1015.32 1015.34 1015.38 1015.42 1015.44 1015.42 1015.35 1015.21 1015.01 1014.76 1014.46 1014.15 1013.85 1013.59 1013.39 1013.26 1013.23 1013.30 1013.48 1013.77 1014.15 1014.63 1015.18 1015.79 1016.45 1017.11 1017.76 1018.37 1018.92 1019.38 1019.76 1020.06 1020.29 1020.46 1020.60 1020.73 1020.87 1021.03 1021.20 1021.38 1021.56 1021.73 1021.86
1015.28 1015.27 1015.28 1015.31 1015.35 1015.37 1015.34 1015.26 1015.10 1014.88 1014.58 1014.23 1013.86 1013.49 1013.16 1012.88 1012.69 1012.61 1012.64 1012.79 1013.07 1013.47 1013.97 1014.57 1015.24 1015.96 1016.70 1017.43 1018.12 1018.75 1019.30 1019.76 1020.12 1020.41 1020.63 1020.81 1020.96 1021.11 1021.27 1021.44 1021.63 1021.82 1022.00 1022.17
1015.18 1015.19 1015.22 1015.27 1015.33 1015.36 1015.35 1015.27 1015.10 1014.84 1014.50 1014.10 1013.65 1013.20 1012.77 1012.41 1012.14 1011.99 1011.98 1012.11 1012.39 1012.80 1013.33 1013.97 1014.69 1015.47 1016.27 1017.06 1017.81 1018.51 1019.13 1019.66 1020.10 1020.45 1020.74 1020.97 1021.17 1021.35 1021.53 1021.71 1021.90 1022.10 1022.30 1022.49
1015.07 1015.11 1015.19 1015.29 1015.39 1015.46 1015.47 1015.41 1015.24 1014.97 1014.59 1014.12 1013.60 1013.07 1012.55 1012.11 1011.77 1011.56 1011.50 1011.61 1011.88 1012.30 1012.86 1013.52 1014.27 1015.07 1015.90 1016.72 1017.50 1018.23 1018.90 1019.48 1019.98 1020.40 1020.75 1021.05 1021.31 1021.55 1021.76 1021.97 1022.18 1022.39 1022.59 1022.79
1015.01 1015.11 1015.25 1015.40 1015.56 1015.68 1015.74 1015.71 1015.55 1015.27 1014.87 1014.36 1013.78 1013.17 1012.59 1012.07 1011.67 1011.41 1011.33 1011.42 1011.68 1012.11 1012.67 1013.33 1014.08 1014.87 1015.68 1016.48 1017.25 1017.98 1018.64 1019.25 1019.79 1020.27 1020.68 1021.06 1021.38 1021.68 1021.95 1022.20 1022.43 1022.64 1022.84 1023.03
1015.10 1015.25 1015.44 1015.65 1015.87 1016.04 1016.15 1016.15 1016.03 1015.75 1015.34 1014.80 1014.18 1013.53 1012.89 1012.33 1011.88 1011.59 1011.49 1011.56 1011.82 1012.24 1012.79 1013.43 1014.14 1014.89 1015.64 1016.38 1017.09 1017.77 1018.41 1019.00 1019.55 1020.07 1020.54 1020.97 1021.37 1021.73 1022.05 1022.34 1022.59 1022.81 1023.00 1023.16
1015.41 1015.59 1015.82 1016.07 1016.32 1016.54 1016.68 1016.71 1016.60 1016.34 1015.92 1015.38 1014.73 1014.05 1013.39 1012.80 1012.34 1012.04 1011.92 1011.99 1012.24 1012.65 1013.17 1013.77 1014.42 1015.09 1015.76 1016.41 1017.03 1017.63 1018.21 1018.76 1019.30 1019.83 1020.33 1020.82 1021.27 1021.68 1022.05 1022.37 1022.63 1022.85 1023.03 1023.16
1015.97 1016.15 1016.38 1016.64 1016.90 1017.12 1017.27 1017.31 1017.21 1016.94 1016.52 1015.97 1015.31 1014.62 1013.95 1013.36 1012.89 1012.59 1012.48 1012.55 1012.80 1013.19 1013.67 1014.23 1014.81 1015.40 1015.97 1016.51 1017.03 1017.53 1018.03 1018.53 1019.04 1019.55 1020.07 1020.58 1021.07 1021.52 1021.92 1022.26 1022.53 1022.74 1022.89 1022.99
1016.77 1016.91 1017.10 1017.32 1017.55 1017.74 1017.86 1017.87 1017.75 1017.46 1017.02 1016.45 1015.79 1015.09 1014.42 1013.83 1013.38 1013.09 1012.98 1013.06 1013.31 1013.68 1014.14 1014.64 1015.16 1015.67 1016.15 1016.59 1017.02 1017.43 1017.85 1018.29 1018.76 1019.25 1019.76 1020.28 1020.78 1021.25 1021.66 1022.00 1022.26 1022.45 1022.57 1022.64
1017.72 1017.80 1017.91 1018.06 1018.21 1018.33 1018.38 1018.32 1018.14 1017.80 1017.33 1016.73 1016.05 1015.35 1014.68 1014.10 1013.65 1013.38 1013.29 1013.37 1013.62 1013.97 1014.41 1014.88 1015.35 1015.79 1016.20 1016.57 1016.92 1017.27 1017.63 1018.02 1018.44 1018.91 1019.40 1019.91 1020.40 1020.86 1021.26 1021.59 1021.83 1022.00 1022.10 1022.15
1018.71 1018.70 1018.72 1018.76 1018.81 1018.82 1018.76 1018.61 1018.34 1017.93 1017.40 1016.76 1016.06 1015.34 1014.67 1014.10 1013.66 1013.40 1013.31 1013.40 1013.64 1013.99 1014.40 1014.85 1015.28 1015.69 1016.05 1016.39 1016.69 1017.00 1017.32 1017.67 1018.07 1018.51 1018.98 1019.46 1019.93 1020.36 1020.74 1021.04 1021.26 1021.41 1021.49 1021.52
1019.60 1019.51 1019.43 1019.37 1019.29 1019.18 1019.00 1018.74 1018.37 1017.87 1017.28 1016.59 1015.86 1015.13 1014.45 1013.88 1013.45 1013.18 1013.10 1013.18 1013.41 1013.74 1014.13 1014.55 1014.96 1015.35 1015.70 1016.01 1016.30 1016.59 1016.90 1017.24 1017.62 1018.04 1018.48 1018.93 1019.37 1019.76 1020.10 1020.37 1020.57 1020.70 1020.77 1020.81
1020.31 1020.15 1020.00 1019.84 1019.65 1019.42 1019.13 1018.76 1018.29 1017.72 1017.06 1016.33 1015.57 1014.83 1014.15 1013.58 1013.15 1012.89 1012.79 1012.85 1013.05 1013.35 1013.71 1014.09 1014.48 1014.84 1015.18 1015.49 1015.78 1016.07 1016.38 1016.72 1017.09 1017.49 1017.91 1018.33 1018.72 1019.08 1019.39 1019.63 1019.80 1019.92 1019.99 1020.05
1020.78 1020.60 1020.40 1020.16 1019.90 1019.58 1019.20 1018.74 1018.19 1017.56 1016.86 1016.11 1015.35 1014.62 1013.95 1013.39 1012.96 1012.69 1012.56 1012.59 1012.74 1012.98 1013.29 1013.62 1013.96 1014.29 1014.60 1014.90 1015.19 1015.48 1015.80 1016.14 1016.50 1016.88 1017.28 1017.66 1018.02 1018.34 1018.61 1018.83 1018.99 1019.10 1019.19 1019.27
1021.03 1020.86 1020.64 1020.38 1020.06 1019.69 1019.25 1018.74 1018.15 1017.51 1016.80 1016.07 1015.33 1014.62 1013.99 1013.45 1013.03 1012.74 1012.59 1012.56 1012.64 1012.80 1013.02 1013.27 1013.54 1013.80 1014.07 1014.33 1014.60 1014.88 1015.19 1015.52 1015.87 1016.24 1016.61 1016.96 1017.29 1017.58 1017.82 1018.01 1018.16 1018.28 1018.38 1018.49
1021.11 1020.96 1020.76 1020.50 1020.17 1019.78 1019.33 1018.81 1018.23 1017.59 1016.92 1016.23 1015.55 1014.91 1014.33 1013.83 1013.42 1013.13 1012.94 1012.85 1012.85 1012.91 1013.02 1013.16 1013.31 1013.49 1013.67 1013.87 1014.09 1014.34 1014.61 1014.92 1015.25 1015.59 1015.93 1016.26 1016.55 1016.81 1017.03 1017.21 1017.35 1017.48 1017.60 1017.74
1021.07 1020.97 1020.80 1020.56 1020.25 1019.87 1019.43 1018.93 1018.38 1017.80 1017.20 1016.59 1016.00 1015.44 1014.93 1014.49 1014.12 1013.83 1013.61 1013.46 1013.36 1013.31 1013.29 1013.30 1013.32 1013.37 1013.45 1013.56 1013.70 1013.89 1014.12 1014.38 1014.67 1014.98 1015.29 1015.59 1015.85 1016.09 1016.29 1016.45 1016.60 1016.73 1016.87 1017.02
1020.99 1020.93 1020.79 1020.57 1020.28 1019.92 1019.51 1019.06 1018.57 1018.06 1017.55 1017.04 1016.55 1016.10 1015.68 1015.31 1014.99 1014.71 1014.47 1014.26 1014.08 1013.92 1013.77 1013.64 1013.53 1013.45 1013.40 1013.40 1013.46 1013.56 1013.73 1013.93 1014.18 1014.44 1014.72 1014.98 1015.22 1015.43 1015.61 1015.77 1015.91 1016.04 1016.18 1016.34
1020.90 1020.85 1020.72 1020.51 1020.23 1019.90 1019.52 1019.11 1018.68 1018.25 1017.83 1017.43 1017.06 1016.71 1016.40 1016.11 1015.84 1015.59 1015.34 1015.10 1014.85 1014.60 1014.34 1014.09 1013.86 1013.66 1013.50 1013.39 1013.35 1013.37 1013.46 1013.60 1013.79 1014.01 1014.24 1014.47 1014.68 1014.86 1015.02 1015.16 1015.29 1015.42 1015.56 1015.72
1020.80 1020.73 1020.59 1020.36 1020.08 1019.75 1019.39 1019.01 1018.64 1018.28 1017.95 1017.64 1017.36 1017.12 1016.90 1016.68 1016.48 1016.26 1016.03 1015.78 1015.49 1015.19 1014.86 1014.53 1014.21 1013.91 1013.66 1013.47 1013.34 1013.29 1013.31 1013.39 1013.53 1013.69 1013.88 1014.06 1014.24 1014.39 1014.53 1014.65 1014.76 1014.87 1014.99 1015.14
1020.68 1020.55 1020.36 1020.10 1019.79 1019.45 1019.09 1018.74 1018.40 1018.09 1017.82 1017.58 1017.39 1017.22 1017.08 1016.94 1016.79 1016.63 1016.43 1016.19 1015.91 1015.58 1015.23 1014.87 1014.50 1014.15 1013.85 1013.60 1013.42 1013.31 1013.27 1013.29 1013.37 1013.49 1013.62 1013.76 1013.90 1014.02 1014.12 1014.21 1014.30 1014.39 1014.50 1014.62
1020.48 1020.29 1020.03 1019.72 1019.37 1019.01 1018.64 1018.29 1017.97 1017.69 1017.46 1017.27 1017.13 1017.02 1016.94 1016.86 1016.77 1016.65 1016.50 1016.30 1016.05 1015.75 1015.42 1015.06 1014.70 1014.35 1014.03 1013.75 1013.54 1013.40 1013.32 1013.29 1013.32 1013.38 1013.47 1013.55 1013.64 1013.72 1013.79 1013.85 1013.91 1013.97 1014.06 1014.16
1020.20 1019.92 1019.60 1019.24 1018.85 1018.46 1018.08 1017.73 1017.42 1017.15 1016.94 1016.78 1016.67 1016.59 1016.55 1016.51 1016.46 1016.39 1016.30 1016.15 1015.96 1015.72 1015.44 1015.13 1014.81 1014.50 1014.20 1013.94 1013.72 1013.55 1013.44 1013.37 1013.35 1013.36 1013.39 1013.42 1013.46 1013.49 1013.52 1013.55 1013.58 1013.62 1013.68 1013.77
1019.80 1019.46 1019.08 1018.68 1018.28 1017.87 1017.49 1017.14 1016.84 1016.58 1016.38 1016.22 1016.12 1016.06 1016.03 1016.02 1016.01 1015.98 1015.94 1015.85 1015.73 1015.57 1015.37 1015.14 1014.88 1014.63 1014.37 1014.13 1013.93 1013.75 1013.62 1013.51 1013.44 1013.39 1013.37 1013.35 1013.33 1013.32 1013.31 1013.30 1013.30 1013.32 1013.36 1013.43
1019.29 1018.91 1018.51 1018.10 1017.70 1017.31 1016.94 1016.61 1016.31 1016.07 1015.87 1015.72 1015.62 1015.56 1015.53 1015.53 1015.54 1015.55 1015.54 1015.52 1015.47 1015.38 1015.27 1015.12 1014.94 1014.75 1014.55 1014.35 1014.16 1013.98 1013.82 1013.68 1013.56 1013.46 1013.38 1013.30 1013.23 1013.18 1013.13 1013.09 1013.08 1013.08 1013.11 1013.17
1018.70 1018.31 1017.92 1017.53 1017.15 1016.80 1016.47 1016.17 1015.90 1015.67 1015.49 1015.34 1015.23 1015.17 1015.13 1015.13 1015.14 1015.17 1015.20 1015.23 1015.23 1015.22 1015.18 1015.11 1015.00 1014.88 1014.72 1014.56 1014.38 1014.20 1014.02 1013.84 1013.68 1013.53 1013.39 1013.27 1013.16 1013.07 1012.99 1012.93 1012.90 1012.89 1012.91 1012.96
1018.04 1017.67 1017.31 1016.97 1016.65 1016.35 1016.08 1015.83 1015.60 1015.40 1015.23 1015.08 1014.97 1014.89 1014.85 1014.84 1014.85 1014.89 1014.94 1015.00 1015.05 1015.09 1015.11 1015.10 1015.06 1014.98 1014.87 1014.72 1014.55 1014.37 1014.17 1013.97 1013.77 1013.58 1013.40 1013.23 1013.09 1012.97 1012.87 1012.81 1012.76 1012.75 1012.76 1012.80
Thickness
5512 5514 5516 5519 5523 5523 5522 5530 5532 5545 5548 5554 5557 5559 5562 5563 5563 5562 5561 5559 5557 5556 5554 5549 5545 5541 5538 5535 5532 5529 5528 5527 5526 5525 5524 5523 5523 5523 5523 5522 5523 5523 5522 5522
5504 5508 5510 5513 5519 5521 5523 5527 5531 5534 5541 5549 5551 5551 5553 5555 5557 5557 5558 5557 5555 5552 5549 5545 5540 5536 5532 5528 5524 5521 5519 5518 5515 5514 5513 5512 5511 5511 5510 5510 5510 5510 5510 5510
5508 5504 5506 5516 5523 5521 5521 5524 5526 5529 5538 5543 5542 5544 5547 5551 5553 5555 5556 5556 5553 5551 5547 5543 5538 5532 5527 5522 5516 5513 5511 5508 5506 5504 5503 5502 5501 5499 5499 5498 5498 5497 5497 5497
5501 5499 5500 5520 5515 5516 5517 5519 5521 5523 5528 5531 5534 5539 5542 5545 5548 5551 5553 5553 5551 5549 5545 5540 5533 5525 5520 5514 5509 5506 5503 5500 5498 5496 5494 5492 5490 5489 5488 5487 5487 5486 5485 5485
5496 5500 5509 5513 5510 5509 5511 5514 5514 5516 5520 5524 5527 5532 5541 5542 5542 5545 5547 5548 5548 5545 5540 5533 5525 5518 5512 5507 5503 5499 5496 5493 5490 5488 5485 5483 5481 5480 5478 5477 5476 5475 5474 5474
5491 5494 5502 5507 5505 5503 5505 5510 5507 5507 5511 5514 5518 5528 5537 5535 5534 5536 5537 5538 5538 5535 5530 5523 5517 5511 5506 5501 5497 5493 5490 5486 5483 5480 5478 5476 5473 5471 5469 5468 5466 5465 5464 5463
5488 5490 5500 5498 5496 5496 5502 5503 5496 5497 5500 5503 5508 5515 5520 5521 5523 5524 5524 5524 5523 5522 5518 5514 5508 5503 5499 5495 5491 5487 5483 5479 5476 5473 5471 5469 5466 5464 5462 5460 5458 5457 5456 5456
5485 5484 5490 5485 5487 5488 5487 5484 5485 5488 5491 5494 5498 5504 5508 5511 5512 5512 5512 5511 5510 5509 5506 5503 5499 5496 5493 5488 5485 5480 5477 5473 5469 5467 5465 5462 5459 5457 5455 5454 5452 5452 5451 5452
5479 5481 5475 5473 5473 5469 5469 5472 5475 5477 5481 5485 5490 5496 5499 5502 5503 5503 5502 5501 5499 5498 5495 5492 5490 5489 5487 5483 5478 5474 5471 5467 5464 5461 5459 5456 5455 5452 5450 5449 5449 5448 5448 5449
5462 5466 5462 5462 5461 5458 5458 5460 5463 5466 5471 5476 5481 5486 5490 5493 5495 5495 5493 5492 5490 5489 5487 5484 5483 5482 5481 5477 5473 5470 5467 5463 5460 5457 5454 5451 5449 5448 5447 5446 5445 5445 5445 5445
5449 5450 5451 5453 5449 5448 5449 5452 5455 5459 5462 5466 5472 5477 5480 5484 5487 5488 5487 5485 5483 5482 5481 5480 5477 5475 5473 5471 5468 5465 5463 5459 5456 5453 5451 5449 5446 5445 5444 5444 5444 5443 5442 5441
5433 5431 5428 5436 5436 5436 5439 5442 5445 5449 5454 5458 5461 5467 5471 5475 5478 5479 5479 5478 5477 5476 5476 5475 5472 5470 5468 5466 5464 5461 5459 5456 5453 5450 5448 5446 5444 5441 5440 5439 5438 5436 5436 5434
5411 5414 5416 5422 5425 5426 5428 5431 5434 5438 5442 5447 5452 5456 5460 5464 5467 5469 5470 5471 5471 5471 5471 5470 5468 5467 5465 5462 5460 5458 5457 5454 5451 5448 5446 5444 5442 5440 5439 5436 5434 5433 5432 5430
5403 5403 5408 5413 5415 5416 5419 5422 5425 5429 5433 5437 5441 5445 5449 5453 5456 5459 5461 5463 5464 5464 5465 5465 5464 5463 5462 5459 5457 5455 5453 5451 5449 5446 5444 5442 5440 5438 5437 5436 5433 5432 5430 5427
5396 5394 5397 5401 5405 5407 5409 5412 5415 5419 5424 5428 5431 5434 5437 5441 5445 5448 5450 5452 5454 5455 5457 5457 5457 5457 5456 5454 5453 5451 5450 5448 5445 5443 5441 5438 5436 5434 5432 5430 5429 5428 5425 5422
5389 5390 5392 5394 5396 5397 5398 5401 5403 5407 5412 5416 5419 5422 5424 5428 5432 5435 5438 5440 5444 5446 5447 5448 5449 5450 5449 5449 5448 5447 5446 5444 5441 5439 5437 5434 5431 5429 5427 5425 5424 5423 5421 5418
5382 5385 5385 5385 5386 5387 5388 5389 5391 5394 5398 5403 5406 5409 5412 5416 5421 5424 5426 5428 5431 5433 5435 5437 5439 5440 5441 5442 5442 5442 5441 5439 5436 5434 5432 5430 5427 5425 5423 5422 5420 5419 5417 5414
5375 5374 5374 5375 5377 5378 5379 5380 5381 5383 5386 5389 5392 5396 5400 5404 5409 5411 5414 5416 5419 5422 5423 5425 5428 5430 5432 5434 5434 5435 5434 5433 5432 5430 5428 5425 5423 5421 5418 5416 5415 5413 5411 5407
5369 5367 5367 5366 5367 5367 5368 5369 5370 5371 5373 5376 5380 5384 5388 5391 5395 5398 5400 5404 5408 5411 5412 5414 5417 5421 5423 5424 5425 5426 5426 5426 5425 5424 5422 5420 5418 5415 5413 5411 5409 5407 5404 5401
5361 5360 5358 5357 5357 5357 5358 5360 5361 5362 5364 5366 5369 5373 5378 5381 5384 5387 5390 5392 5393 5396 5399 5403 5407 5410 5413 5415 5416 5417 5418 5418 5417 5417 5415 5414 5412 5410 5408 5405 5403 5400 5398 5395
5351 5350 5348 5347 5348 5349 5349 5351 5353 5355 5357 5359 5361 5365 5368 5371 5374 5377 5380 5383 5384 5385 5390 5393 5397 5400 5403 5406 5408 5409 5410 5410 5410 5410 5408 5407 5405 5404 5402 5399 5397 5394 5392 5389
5341 5340 5339 5338 5339 5341 5342 5343 5344 5347 5349 5351 5354 5356 5359 5362 5365 5368 5370 5372 5374 5377 5381 5385 5387 5391 5394 5397 5399 5401 5401 5402 5402 5402 5401 5400 5398 5397 5395 5393 5391 5389 5386 5383
5331 5330 5329 5329 5330 5332 5333 5335 5336 5338 5340 5343 5346 5348 5351 5353 5356 5359 5362 5364 5365 5369 5373 5376 5379 5383 5386 5388 5390 5392 5393 5394 5394 5394 5393 5392 5391 5390 5388 5387 5385 5382 5380 5377
5322 5321 5320 5321 5321 5323 5326 5328 5328 5329 5332 5335 5337 5340 5342 5345 5348 5350 5351 5354 5357 5361 5364 5367 5370 5374 5376 5379 5381 5383 5384 5385 5385 5385 5385 5384 5383 5382 5381 5380 5378 5376 5373 5371
5312 5311 5310 5311 5313 5316 5318 5319 5320 5322 5324 5328 5330 5333 5335 5337 5339 5342 5344 5346 5349 5353 5356 5359 5361 5364 5366 5369 5371 5373 5375 5376 5377 5377 5377 5377 5376 5375 5374 5372 5370 5368 5366 5364
5304 5304 5304 5304 5305 5307 5309 5310 5312 5315 5317 5321 5324 5326 5328 5330 5331 5334 5336 5338 5341 5345 5347 5350 5352 5355 5357 5360 5362 5364 5366 5367 5368 5368 5369 5368 5368 5367 5366 5364 5363 5361 5359 5358
5296 5296 5297 5299 5300 5300 5301 5302 5304 5308 5310 5313 5316 5319 5320 5322 5324 5326 5329 5331 5334 5337 5339 5342 5344 5346 5348 5351 5353 5355 5356 5358 5359 5360 5360 5360 5360 5359 5358 5357 5355 5354 5352 5351